User: anonymous   Login
Location: Orinda
(37.8771°N, 122.1797°W)
Time: 10:10:45
(UTC+00:00)
Language:

Cosmos 2184 Rocket - Orbit

View from above orbital plane
View from above orbital plane
View from above satellite
View from above satellite

Ground track
Ground track

The orbit data is extracted from the following two-line orbital elements,

1 21938U 92020B   19343.71340941  .00000010  00000-0 -49913-5 0  9998
2 21938  82.9314  48.1865 0029268 183.2107 291.5271 13.75281715387750
Epoch (UTC): 09 December 2019 17:07:18
Eccentricity: 0.0029268
inclination: 82.9314°
perigee height: 959 km
apogee height: 1002 km
right ascension of ascending node: 48.1865°
argument of perigee: 183.2107°
revolutions per day: 13.75281715
mean anomaly at epoch: 291.5271°
orbit number at epoch: 38775

The dashed part of the orbit path shows where the satellite is in the earth's shadow,  

DLR